DLH205 EFHK-CYYC

Flight info

Callsign DLH205
Flight time N/A
Altitude 36000
Route NEPE4N NEPEK Y361 NISVI DCT DIVEG DCT LAMPI DCT ABGUN DCT 7620N DCT 7660N DCT N7380 DCT N7090 DCT YMM Q856 CACHO Q882 DUDNI BIRKO6
Aircraft A388/J-SADE2E3FGHIJ3J4J5M1RWXY/LB1D1

Departure

Time 2026-05-05 17:52
Airport Helsinki Vantaa Airport (EFHK)

Arrival

Time N/A
Airport Calgary International Airport (CYYC)
Time Latitude Longitude Altitude Speed Heading
2026-05-05 17:26 60.31376 24.95374 195 ft 0 kts 137°
2026-05-05 17:34 60.31379 24.95368 195 ft 2 kts 137°
2026-05-05 17:34 60.31390 24.95348 195 ft 2 kts 136°
2026-05-05 17:34 60.31397 24.95334 195 ft 2 kts 134°
2026-05-05 17:34 60.31406 24.95309 195 ft 2 kts 104°
2026-05-05 17:35 60.31408 24.95278 195 ft 2 kts 80°
2026-05-05 17:35 60.31403 24.95248 195 ft 2 kts 57°
2026-05-05 17:35 60.31399 24.95233 195 ft 1 kts 46°
2026-05-05 17:35 60.31397 24.95228 195 ft 0 kts 47°
2026-05-05 17:42 60.31400 24.95234 195 ft 3 kts 47°
2026-05-05 17:42 60.31422 24.95281 195 ft 6 kts 47°
2026-05-05 17:42 60.31458 24.95359 195 ft 9 kts 47°
2026-05-05 17:42 60.31507 24.95467 195 ft 12 kts 47°
2026-05-05 17:43 60.31567 24.95595 195 ft 13 kts 45°
2026-05-05 17:43 60.31648 24.95630 195 ft 12 kts 332°
2026-05-05 17:43 60.31719 24.95560 195 ft 11 kts
2026-05-05 17:43 60.31780 24.95637 195 ft 10 kts 48°
2026-05-05 17:44 60.31828 24.95746 195 ft 10 kts 48°
2026-05-05 17:44 60.31869 24.95835 195 ft 6 kts 47°
2026-05-05 17:44 60.31883 24.95866 195 ft 1 kts 47°
2026-05-05 17:44 60.31886 24.95872 195 ft 0 kts 47°
2026-05-05 17:45 60.31897 24.95896 195 ft 4 kts 46°
2026-05-05 17:45 60.31915 24.95923 195 ft 2 kts 31°
2026-05-05 17:45 60.31918 24.95926 195 ft 0 kts 29°
2026-05-05 17:45 60.31919 24.95928 195 ft 0 kts 27°
2026-05-05 17:46 60.31930 24.95936 195 ft 5 kts 20°
2026-05-05 17:46 60.31983 24.95918 195 ft 11 kts 333°
2026-05-05 17:46 60.32046 24.95812 195 ft 13 kts 317°
2026-05-05 17:46 60.32116 24.95682 195 ft 15 kts 318°
2026-05-05 17:47 60.32197 24.95535 195 ft 17 kts 317°
2026-05-05 17:47 60.32283 24.95374 195 ft 17 kts 317°
2026-05-05 17:47 60.32387 24.95245 195 ft 18 kts 342°
2026-05-05 17:47 60.32509 24.95166 195 ft 18 kts 342°
2026-05-05 17:48 60.32629 24.95087 195 ft 18 kts 342°
2026-05-05 17:48 60.32745 24.95011 195 ft 17 kts 341°
2026-05-05 17:48 60.32853 24.94937 195 ft 15 kts 338°
2026-05-05 17:48 60.32930 24.94843 195 ft 11 kts 320°
2026-05-05 17:49 60.32982 24.94749 195 ft 9 kts 318°
2026-05-05 17:49 60.33022 24.94676 195 ft 7 kts 318°
2026-05-05 17:49 60.33058 24.94610 195 ft 8 kts 318°
2026-05-05 17:49 60.33102 24.94514 195 ft 10 kts 302°
2026-05-05 17:50 60.33109 24.94377 195 ft 9 kts 246°
2026-05-05 17:50 60.33079 24.94306 195 ft 4 kts 228°
2026-05-05 17:50 60.33071 24.94286 195 ft 0 kts 228°
2026-05-05 17:50 60.33069 24.94284 195 ft 0 kts 228°
2026-05-05 17:51 60.33068 24.94281 195 ft 0 kts 228°
2026-05-05 17:51 60.33067 24.94278 195 ft 0 kts 228°
2026-05-05 17:51 60.33065 24.94274 195 ft 2 kts 228°
2026-05-05 17:51 60.32930 24.93971 195 ft 59 kts 227°
2026-05-05 17:52 60.32507 24.93050 195 ft 120 kts 227°
2026-05-05 17:52 60.31810 24.91504 223 ft 176 kts 229°
2026-05-05 17:52 60.30999 24.89462 665 ft 200 kts 245°
2026-05-05 17:52 60.30684 24.86705 1203 ft 208 kts 263°
2026-05-05 17:53 60.30683 24.83769 1666 ft 212 kts 278°
2026-05-05 17:53 60.31098 24.80958 2128 ft 209 kts 290°
2026-05-05 17:53 60.31671 24.78289 2585 ft 215 kts 296°
2026-05-05 17:53 60.32390 24.75468 3231 ft 238 kts 296°
2026-05-05 17:54 60.33175 24.72490 3892 ft 246 kts 298°
2026-05-05 17:54 60.34010 24.69479 4520 ft 249 kts 298°
2026-05-05 17:54 60.34851 24.66430 5143 ft 252 kts 298°
2026-05-05 17:54 60.35834 24.63493 5756 ft 256 kts 314°
2026-05-05 17:55 60.37267 24.61371 6399 ft 262 kts 334°
2026-05-05 17:55 60.39085 24.60365 7002 ft 290 kts 348°
2026-05-05 17:55 60.41183 24.59731 7605 ft 324 kts 348°
2026-05-05 17:55 60.43508 24.58925 8186 ft 356 kts 348°
2026-05-05 17:56 60.45971 24.58114 8711 ft 364 kts 348°
2026-05-05 17:56 60.48468 24.57277 9212 ft 368 kts 348°
2026-05-05 17:56 60.51018 24.56428 9714 ft 373 kts 347°
2026-05-05 17:56 60.53581 24.55567 10212 ft 378 kts 346°
2026-05-05 17:57 60.56177 24.54691 10711 ft 383 kts 346°
2026-05-05 17:57 60.58801 24.53806 11208 ft 387 kts 345°
2026-05-05 17:57 60.61458 24.52906 11706 ft 391 kts 345°
2026-05-05 17:57 60.64142 24.51999 12202 ft 395 kts 344°
2026-05-05 17:58 60.66848 24.51074 12700 ft 399 kts 344°
2026-05-05 17:58 60.69600 24.50142 13201 ft 402 kts 344°
2026-05-05 17:58 60.72342 24.49142 13691 ft 401 kts 340°
2026-05-05 17:58 60.74937 24.47328 14186 ft 394 kts 329°
2026-05-05 17:59 60.77380 24.44838 14691 ft 393 kts 324°
2026-05-05 17:59 60.79775 24.42172 15190 ft 395 kts 324°
2026-05-05 17:59 60.82180 24.39478 15686 ft 398 kts 323°
2026-05-05 17:59 60.84599 24.36756 16182 ft 401 kts 323°
2026-05-05 18:00 60.87052 24.33989 16686 ft 402 kts 322°
2026-05-05 18:00 60.89505 24.31219 17198 ft 404 kts 322°
2026-05-05 18:00 60.91975 24.28421 17708 ft 407 kts 322°
2026-05-05 18:00 60.94453 24.25611 18219 ft 410 kts 321°
2026-05-05 18:01 60.96943 24.22782 18709 ft 413 kts 321°
2026-05-05 18:01 60.99448 24.19929 19167 ft 415 kts 321°
2026-05-05 18:01 61.01974 24.17050 19626 ft 419 kts 321°
2026-05-05 18:01 61.04535 24.14125 20091 ft 421 kts 321°
2026-05-05 18:02 61.07088 24.11203 20551 ft 423 kts 321°
2026-05-05 18:02 61.09656 24.08257 21012 ft 426 kts 320°
2026-05-05 18:02 61.12240 24.05279 21462 ft 427 kts 320°
2026-05-05 18:02 61.14798 24.02203 21909 ft 428 kts 319°